DateTimeUTC,F1_A11,F1_S11,BsB_S11,BsG_S11,BsR_S11,BbsB_S11,BbsG_S11,BbsR_S11,BaB_A11,BaG_A11,BaR_A11,Tu_S11,T_S11,Uu_S11,U_S11,P_S11,T1_A11
2021-10-10T21:00:00Z,00000200,21000000,,,,,,,0000.18,0000.34,0000.20,16.6,24.1,,00.0,0673.0,30.9
2021-10-10T21:01:00Z,00000200,21000000,,,,,,,0000.31,0000.04,-000.09,16.6,24.1,,00.0,0673.0,30.9
2021-10-10T21:02:00Z,00000200,21000000,,,,,,,-000.18,0000.03,-000.00,16.6,24.1,,00.0,0673.0,30.9
2021-10-10T21:03:00Z,00000200,61000000,,,,,,,0000.03,-000.43,-000.28,16.6,24.1,,00.0,0673.0,30.9
2021-10-10T21:04:00Z,00000200,41000000,-000.19,0000.09,0000.04,-000.20,-000.04,-000.21,0000.02,0000.62,0000.14,17.0,24.0,,00.0,0673.9,31.0
2021-10-10T21:05:00Z,00000200,01000000,0000.09,0000.20,-000.12,-000.38,-000.03,-000.20,-000.32,-000.23,-000.10,17.1,24.0,,00.0,0674.0,31.0
2021-10-10T21:06:00Z,00000200,01000000,0000.16,-000.24,0000.10,-000.53,0000.29,0000.08,0000.05,-000.16,-000.13,17.1,23.9,,00.0,0674.0,30.9
2021-10-10T21:07:00Z,00000200,01000000,0000.62,0000.01,-000.13,-000.13,-000.04,-000.09,-000.21,-000.07,-000.28,17.0,23.9,,00.0,0674.0,30.9
2021-10-10T21:08:00Z,00000200,01000000,0000.30,0000.07,-000.08,0000.76,-000.12,0000.15,0000.05,-000.02,0000.22,17.0,23.9,,00.0,0674.0,30.9
2021-10-10T21:09:00Z,00000200,01000000,0000.94,-000.30,0000.29,0000.15,-000.08,0000.04,-000.01,-000.10,-000.29,16.9,23.8,,00.0,0674.0,30.9
2021-10-10T21:10:00Z,00000200,01000000,0001.06,0000.27,-000.22,0000.03,0000.11,-000.17,-000.10,-000.18,0000.10,16.8,23.8,,00.0,0674.0,30.9
2021-10-10T21:11:00Z,00000200,01000000,0000.94,0000.08,-000.26,-000.53,-000.15,-000.11,-000.22,-000.42,-000.05,16.8,23.7,,00.0,0674.0,30.9
2021-10-10T21:12:00Z,00000200,01000000,0000.41,-000.03,-000.06,-000.07,0000.10,-000.04,0000.28,0000.14,-000.04,16.8,23.7,,00.0,0674.0,30.9
2021-10-10T21:13:00Z,00000200,01000000,0000.32,0000.10,0000.23,0000.10,-000.17,-000.13,-000.01,0000.36,0000.21,16.7,23.7,,00.0,0674.0,30.9
2021-10-10T21:14:00Z,00000200,01000000,-000.02,0000.09,-000.32,0000.00,-000.46,-000.15,0000.16,-000.17,-000.04,16.7,23.7,,00.0,0674.0,30.9
2021-10-10T21:15:00Z,00000200,01000000,0000.67,0000.21,0000.26,-000.23,0000.08,-000.07,-000.18,0000.21,0000.31,16.8,23.7,,00.0,0674.0,30.9
2021-10-10T21:16:00Z,00000200,01000000,0000.17,0000.09,-000.15,-000.54,0000.01,-000.07,0000.08,0000.18,0000.17,16.8,23.7,,00.0,0674.0,30.9
2021-10-10T21:17:00Z,00000200,01000000,0000.49,0000.08,0000.10,0000.08,-000.08,0000.03,0000.10,-000.13,-000.45,16.9,23.7,,00.0,0673.9,31.0
2021-10-10T21:18:00Z,00000200,01000000,0000.33,-000.27,-000.24,-000.20,0000.01,-000.26,0000.14,0000.05,0000.48,16.9,23.8,,00.0,0673.9,31.0
2021-10-10T21:19:00Z,00000200,01000000,0001.04,0000.26,-000.18,-000.62,0000.04,0000.04,-000.13,0000.20,-000.13,17.0,23.8,,00.0,0674.0,31.0
2021-10-10T21:20:00Z,00000200,01000000,0000.43,-000.30,-000.11,0000.23,-000.24,-000.26,-000.07,-000.04,0000.07,17.1,23.8,,00.0,0673.9,30.9
2021-10-10T21:21:00Z,00000200,01000000,0000.43,0000.12,-000.10,-000.76,-000.17,-000.12,0000.13,0000.03,-000.33,17.1,23.8,,00.0,0673.9,31.0
2021-10-10T21:22:00Z,00000200,01000000,-000.24,0000.02,0000.11,-000.75,0000.12,-000.00,0000.16,-000.20,0000.35,17.2,23.9,,00.0,0673.9,31.0
2021-10-10T21:23:00Z,00000200,01000000,0000.12,0000.06,0000.03,0000.06,-000.21,-000.16,0000.03,0000.26,0000.12,17.2,23.9,,00.0,0673.9,31.0
2021-10-10T21:24:00Z,00000200,01000000,-000.16,0000.07,-000.23,-000.10,-000.11,0000.01,-000.54,-000.13,-000.34,17.2,23.9,,00.0,0673.9,31.0
2021-10-10T21:25:00Z,00000200,01000000,0000.08,0000.28,-000.20,0000.06,0000.15,-000.03,0000.12,-000.21,0000.04,17.2,23.9,,00.0,0673.9,31.0
2021-10-10T21:26:00Z,00000200,01000000,0000.23,0000.17,-000.13,0000.44,-000.33,-000.13,-000.03,-000.18,-000.23,17.1,23.8,,00.0,0673.9,30.9
2021-10-10T21:27:00Z,00000200,01000000,-000.12,0000.14,-000.05,-000.25,-000.20,0000.27,0000.04,0000.09,0000.31,17.0,23.8,,00.0,0673.9,30.9
2021-10-10T21:28:00Z,00000200,01000000,0000.77,-000.10,0000.13,-000.13,-000.29,0000.11,0000.11,-000.03,0000.09,17.0,23.8,,00.0,0673.9,30.9
2021-10-10T21:29:00Z,00000200,01000000,0000.18,-000.14,0000.03,-000.09,-000.03,-000.07,-000.11,-000.08,-000.49,17.0,23.8,,00.0,0673.9,30.9
2021-10-10T21:30:00Z,00000200,01000000,-000.32,-000.27,-000.22,-000.82,-000.34,-000.27,0000.17,0000.30,0000.50,17.1,23.8,,00.0,0673.9,31.0
2021-10-10T21:31:00Z,00000200,01000000,0000.02,0000.18,0000.30,-000.21,-000.25,0000.13,0000.51,0000.17,0000.03,17.1,23.8,,00.0,0673.9,30.9
2021-10-10T21:32:00Z,00000200,01000000,0000.32,-000.21,0000.11,-000.79,-000.21,0000.21,-000.32,0000.04,0000.14,17.1,23.8,,00.0,0673.9,31.0
2021-10-10T21:33:00Z,00000200,01000000,0000.71,0000.00,0000.01,0000.27,-000.16,0000.03,0000.30,0000.19,0000.08,17.2,23.9,,00.0,0673.9,31.0
2021-10-10T21:34:00Z,00000200,01000000,0000.50,0000.16,0000.05,-000.05,-000.15,0000.07,0000.02,0000.03,-000.07,17.3,23.9,,00.0,0673.9,31.0
2021-10-10T21:35:00Z,00000200,01000000,0000.92,-000.12,-000.08,-000.58,-000.08,-000.04,-000.34,-000.30,-000.11,17.3,23.9,,00.0,0673.9,31.0
2021-10-10T21:36:00Z,00000200,01000000,-000.04,0000.24,-000.23,-000.46,-000.18,-000.09,0000.15,0000.51,0000.24,17.3,24.0,,00.0,0673.9,31.0
2021-10-10T21:37:00Z,00000200,01000000,-000.21,-000.31,-000.18,-000.16,-000.03,-000.09,0000.20,-000.24,-000.12,17.4,24.0,,00.0,0673.9,31.0
2021-10-10T21:38:00Z,00000200,01000000,0001.81,-000.09,-000.18,0000.04,0000.13,-000.46,-000.36,-000.24,-000.07,17.3,24.0,,00.0,0673.9,31.0
2021-10-10T21:39:00Z,00000200,01000000,0000.40,0000.18,-000.02,-000.27,0000.14,0000.20,-000.16,0000.09,-000.17,17.3,23.9,,00.0,0673.9,31.0
2021-10-10T21:40:00Z,00000200,01000000,0000.75,0000.07,0000.26,-000.16,0000.05,0000.38,-000.03,-000.20,-000.19,17.2,23.9,,00.0,0673.9,30.9
2021-10-10T21:41:00Z,00000200,01000000,-000.63,-000.01,-000.27,-000.40,-000.00,-000.15,-000.03,-000.09,0000.01,17.1,23.8,,00.0,0673.9,30.9
2021-10-10T21:42:00Z,00000200,01000000,0000.46,-000.26,0000.02,-000.18,-000.05,-000.01,0000.06,0000.03,0000.02,17.1,23.8,,00.0,0673.9,30.9
2021-10-10T21:43:00Z,00000200,01000000,0000.55,0000.23,0000.13,-000.03,-000.25,0000.03,-000.23,-000.34,-000.37,17.1,23.8,,00.0,0673.9,30.9
2021-10-10T21:44:00Z,00000200,01000000,0000.44,0000.03,0000.21,-000.81,-000.25,-000.10,-000.26,0000.00,0000.17,17.1,23.8,,00.0,0673.9,30.9
2021-10-10T21:45:00Z,00000200,01000000,-000.22,0000.23,-000.37,-000.05,0000.14,-000.64,-000.20,-000.10,0000.17,17.1,23.8,,00.0,0673.8,30.9
2021-10-10T21:46:00Z,00000200,01000000,0000.06,0000.29,0000.17,0000.38,-000.02,-000.04,0000.08,-000.23,-000.27,17.1,23.8,,00.0,0673.8,30.9
2021-10-10T21:47:00Z,00000200,01000000,0000.56,0000.12,-000.30,-000.59,0000.33,-000.36,-000.26,-000.30,-000.19,17.1,23.8,,00.0,0673.8,31.0
2021-10-10T21:48:00Z,00000200,01000000,0000.21,-000.23,-000.15,-000.85,-000.24,-000.06,0000.27,0000.17,-000.13,17.2,23.9,,00.0,0673.8,31.0
2021-10-10T21:49:00Z,00000200,01000000,0000.17,0000.48,-000.01,-000.29,0000.14,-000.40,-000.59,-000.26,-000.06,17.3,23.9,,00.0,0673.8,31.0
2021-10-10T21:50:00Z,00000200,01000000,0000.05,0000.32,-000.13,-000.32,-000.15,-000.22,0000.06,-000.00,-000.30,17.3,23.9,,00.0,0673.8,31.0
2021-10-10T21:51:00Z,00000200,01000000,0000.26,0000.08,0000.19,0000.12,-000.18,0000.45,0000.06,0000.52,0000.44,17.4,24.0,,00.0,0673.9,31.0
2021-10-10T21:52:00Z,00000200,01000000,0000.07,0000.16,-000.23,-000.24,-000.02,0000.11,-000.08,-000.17,0000.07,17.4,24.0,,00.0,0673.8,31.0
2021-10-10T21:53:00Z,00000200,01000000,0000.11,-000.12,0000.01,-000.57,-000.23,-000.11,-000.13,-000.55,-000.46,17.3,24.0,,00.0,0673.9,31.0
2021-10-10T21:54:00Z,00000200,01000000,-000.33,0000.16,-000.16,-000.07,-000.03,-000.12,0000.00,-000.11,0000.00,17.3,24.0,,00.0,0673.8,30.9
2021-10-10T21:55:00Z,00000200,01000000,0000.92,0000.04,-000.02,-000.03,-000.26,-000.17,-000.18,-000.21,-000.19,17.2,23.9,,00.0,0673.9,30.9
2021-10-10T21:56:00Z,00000200,01000000,-000.34,0000.27,0000.08,-000.39,0000.05,0000.04,-000.57,-000.31,0000.08,17.2,23.9,,00.0,0673.9,30.9
2021-10-10T21:57:00Z,00000200,41000000,,,,,,,0001.58,0001.38,0000.78,17.2,23.9,,00.0,0673.9,30.9
2021-10-10T21:58:00Z,00000200,61000000,,,,,,,-000.66,-000.44,-000.37,16.7,24.0,,00.0,0672.9,30.9
2021-10-10T21:59:00Z,00000200,21000000,,,,,,,-000.25,-000.56,-000.16,16.7,24.1,,00.0,0672.8,30.9
